Fitchburg, MA

5:17 PM EDT on September 21, 2019 (GMT -0400)
Fitchburg Municipal

Weather History for KFIT - August, 2019

Change the Weather History Date:

Saturday, August 24, 2019

  Actual Average (KORH) Record (KORH)
Temperature  
Mean Temperature 64 °F -  
Max Temperature 75 °F 74 °F 92 °F (1947)
Min Temperature 54 °F 56 °F 44 °F (1971)
Degree Days  
Heating Degree Days 2    
Growing Degree Days 14 (Base 50)    
Moisture  
Dew Point 51 °F    
Average Humidity 65    
Maximum Humidity 83    
Minimum Humidity 45    
Precipitation  
Precipitation 0.00 in - - ()
Sea Level Pressure  
Sea Level Pressure 30.19 in    
Wind  
Wind Speed 5 mph ()    
Max Wind Speed 9 mph    
Max Gust Speed -    
Visibility 10.0 miles    
Events      
Averages and records for this station are not official NWS values.
T = Trace of Precipitation, MM = Missing Value Source: Averaged Metar Reports

Daily Weather History Graph

Daily Weather History Graph

Search for Another Location

Airport or City:

Astronomy

Aug. 24, 2019 Rise Set
Actual Time 6:03 AM EDT 7:34 PM EDT
Civil Twilight 5:33 AM EDT 8:04 PM EDT
Nautical Twilight 4:57 AM EDT 8:40 PM EDT
Astronomical Twilight 4:19 AM EDT 9:18 PM EDT
Moon No Moon Rise 2:50 PM EDT (8/24)
Length of Visible Light 14h 30m
Length of Day
13h 31m
Last Quarter, 39% of the Moon is Illuminated
Aug 24
Last Quarter
Aug 30
New
Sep 5
First Quarter
Sep 14
Full
Sep 21
Last Quarter

Hourly Weather History & Observations

Time (EDT) Temp. Dew Point Humidity Pressure Visibility Wind Dir Wind Speed Gust Speed Precip Events Conditions
12:52 AM 57.0 °F 48.9 °F 74% 30.09 in 10.0 mi NNW 4.6 mph - N/A   Clear
1:52 AM 55.9 °F 50.0 °F 80% 30.10 in 10.0 mi North 5.8 mph - N/A   Clear
2:52 AM 54.0 °F 48.9 °F 83% 30.10 in 10.0 mi North 5.8 mph - N/A   Clear
3:52 AM 54.0 °F 48.9 °F 83% 30.10 in 10.0 mi NNW 5.8 mph - N/A   Clear
4:52 AM 54.0 °F 48.0 °F 80% 30.11 in 10.0 mi North 5.8 mph - N/A   Clear
5:52 AM 54.0 °F 46.9 °F 77% 30.12 in 10.0 mi NNW 4.6 mph - N/A   Clear
6:52 AM 55.0 °F 48.9 °F 80% 30.14 in 10.0 mi Calm Calm - N/A   Clear
7:52 AM 61.0 °F 51.1 °F 70% 30.16 in 10.0 mi NW 5.8 mph - N/A   Clear
8:52 AM 64.9 °F 50.0 °F 58% 30.17 in 10.0 mi NNW 6.9 mph - N/A   Clear
9:52 AM 66.9 °F 50.0 °F 54% 30.18 in 10.0 mi NNE 8.1 mph - N/A   Clear
10:52 AM 70.0 °F 50.0 °F 49% 30.18 in 10.0 mi Variable 5.8 mph - N/A   Clear
11:52 AM 71.1 °F 48.9 °F 45% 30.18 in 10.0 mi NE 9.2 mph - N/A   Partly Cloudy
12:52 PM 72.0 °F 50.0 °F 46% 30.18 in 10.0 mi Variable 5.8 mph - N/A   Partly Cloudy
1:52 PM 73.0 °F 51.1 °F 46% 30.19 in 10.0 mi East 5.8 mph - N/A   Mostly Cloudy
2:52 PM 73.0 °F 53.1 °F 49% 30.19 in 10.0 mi NE 6.9 mph - N/A   Mostly Cloudy
3:52 PM 72.0 °F 54.0 °F 53% 30.20 in 10.0 mi NNE 6.9 mph - N/A   Overcast
4:52 PM 72.0 °F 53.1 °F 51% 30.21 in 10.0 mi East 6.9 mph - N/A   Overcast
5:52 PM 72.0 °F 55.0 °F 55% 30.22 in 10.0 mi ENE 4.6 mph - N/A   Partly Cloudy
6:52 PM 71.1 °F 55.0 °F 57% 30.23 in 10.0 mi NE 5.8 mph - N/A   Scattered Clouds
7:52 PM 66.9 °F 55.0 °F 66% 30.26 in 10.0 mi ESE 4.6 mph - N/A   Mostly Cloudy
8:52 PM 64.9 °F 55.0 °F 70% 30.29 in 10.0 mi East 5.8 mph - N/A   Scattered Clouds
9:52 PM 64.0 °F 54.0 °F 70% 30.31 in 10.0 mi Calm Calm - N/A   Mostly Cloudy
10:52 PM 61.0 °F 54.0 °F 78% 30.32 in 10.0 mi Calm Calm - N/A   Scattered Clouds
11:52 PM 60.1 °F 55.0 °F 83% 30.32 in 10.0 mi NW 3.5 mph - N/A   Mostly Cloudy